This is the latest recevied weather packets stored in our database for station/object N3HBJ. If no packets are shown the sender has not sent any weather packets the latest 10 day(s).
| Time | Temp. | Humidity | Pressure | Rain* | Wind** | Luminosity | Snow |
|---|---|---|---|---|---|---|---|
| 1777812325 | 4.44° C | 67% | 1016.1 hPa | 0 mm | - | 454 W/m² | - |
| 1777811561 | 4.44° C | 70% | 1016 hPa | 0 mm | - | 406 W/m² | - |
| 1777809917 | 2.78° C | 75% | 1015.9 hPa | 0 mm | - | 316 W/m² | - |
| 1777807657 | -0.56° C | 88% | 1015.8 hPa | 0 mm | - | 74 W/m² | - |
| 1777806912 | -1.67° C | 88% | 1015.7 hPa | 0 mm | - | 109 W/m² | - |
| 1777806613 | -1.67° C | 88% | 1015.5 hPa | 0 mm | - | 33 W/m² | - |
| 1777805712 | -1.67° C | 88% | 1015.4 hPa | 0 mm | - | 23 W/m² | - |
| 1777805552 | -1.67° C | 88% | 1015.3 hPa | 0 mm | - | 21 W/m² | - |
| 1777803598 | -1.67° C | 86% | 1015 hPa | 0 mm | - | 9 W/m² | - |
| 1777799981 | -0.56° C | 83% | 1014.8 hPa | 0 mm | - | 0 W/m² | - |
| 1777799079 | -0.56° C | 83% | 1014.6 hPa | 0 mm | - | 0 W/m² | - |
| 1777797874 | -0.56° C | 81% | 1014.5 hPa | 0 mm | - | 0 W/m² | - |
| 1777793363 | 1.11° C | 80% | 1014.2 hPa | 0 mm | - | 0 W/m² | - |
| 1777790361 | 1.11° C | 77% | 1014.2 hPa | 0 mm | - | 0 W/m² | - |
| 1777787961 | 1.67° C | 74% | 1014.3 hPa | 0 mm | - | 0 W/m² | - |
| 1777787361 | 1.67° C | 74% | 1014.3 hPa | 0 mm | - | 0 W/m² | - |
| 1777782560 | 3.33° C | 69% | 1014.5 hPa | 0 mm | - | 0 W/m² | - |
| 1777781340 | 3.33° C | 70% | 1014.6 hPa | 0 mm | - | 0 W/m² | - |
| 1777781175 | 3.33° C | 69% | 1014.6 hPa | 0 mm | - | 0 W/m² | - |
| 1777779808 | 3.33° C | 70% | 1014.5 hPa | 0 mm | - | 0 W/m² | - |
| 1777777973 | 3.89° C | 70% | 1014.8 hPa | 0 mm | - | 0 W/m² | - |
| 1777776174 | 3.89° C | 71% | 1014.9 hPa | 0 mm | - | 0 W/m² | - |
| 1777774054 | 3.89° C | 74% | 1015 hPa | 0 mm | - | 0 W/m² | - |
| 1777772855 | 3.89° C | 75% | 1014.8 hPa | 0 mm | - | 0 W/m² | - |
| 1777771953 | 3.89° C | 78% | 1014.7 hPa | 0 mm | - | 0 W/m² | - |
* Rain latest hour (hover to see other rain measurements)
** Current wind speed in m/s (hover to see current wind gust speed)